Tracking 20628 objects as of 6-Apr-2020
HD Live streaming from Space Station
objects crossing your sky now

COSMOS 2302

Track COSMOS 2302 now!
10-day predictions
COSMOS 2302 is classified as:


NORAD ID: 23444
Int'l Code: 1994-086D
Perigee: 1,420.5 km
Apogee: 1,429.8 km
Inclination: 82.6 °
Period: 114.2 minutes
Semi major axis: 7796 km
RCS: 1.0234 m2 (large)
Launch date: December 26, 1994
Source: Commonwealth of Independent States (former USSR) (CIS)
Launch site: PLESETSK MISSILE AND SPACE COMPLEX (PKMTR)
aabbcc
Your satellite tracking list
Your tracking list is empty




NASA's NSSDC Master Catalog

Two Line Element Set (TLE):
1 23444U 94086D   20097.19417184  .00000035  00000-0  13957-3 0  9993
2 23444  82.5665 330.8656 0005960 262.9733 218.7800 12.61205674163712
Source of the keplerian elements: AFSPC